TimeEDT,TemperatureF,Dew PointF,Humidity,Sea Level PressureIn,VisibilityMPH,Wind Direction,Wind SpeedMPH,Gust SpeedMPH,PrecipitationIn,Events,Conditions,WindDirDegrees,DateUTC
12:53 AM,25.0,21.0,85,30.31,10.0,Calm,Calm,-,N/A,,Clear,0,2013-03-18 04:53:00
1:53 AM,23.0,19.0,85,30.31,10.0,Calm,Calm,-,N/A,,Clear,0,2013-03-18 05:53:00
2:53 AM,21.9,18.0,85,30.34,10.0,North,3.5,-,N/A,,Clear,350,2013-03-18 06:53:00
3:53 AM,21.0,18.0,88,30.35,10.0,Calm,Calm,-,N/A,,Clear,0,2013-03-18 07:53:00
4:53 AM,23.0,16.0,74,30.36,10.0,Variable,4.6,-,N/A,,Clear,0,2013-03-18 08:53:00
5:53 AM,26.1,12.9,58,30.37,10.0,NNW,3.5,-,N/A,,Clear,340,2013-03-18 09:53:00
6:53 AM,26.6,8.6,47,30.38,10.0,NE,3.5,-,N/A,,Clear,50,2013-03-18 10:53:00
7:53 AM,28.0,9.0,45,30.39,10.0,ENE,3.5,-,N/A,,Clear,60,2013-03-18 11:53:00
8:53 AM,28.9,10.0,45,30.38,10.0,Variable,4.6,-,N/A,,Clear,0,2013-03-18 12:53:00
9:53 AM,32.0,12.9,45,30.38,10.0,East,5.8,-,N/A,,Clear,100,2013-03-18 13:53:00
10:53 AM,36.0,17.1,46,30.35,10.0,ESE,6.9,-,N/A,,Clear,110,2013-03-18 14:53:00
11:53 AM,36.0,19.9,52,30.34,10.0,East,9.2,18.4,N/A,,Overcast,100,2013-03-18 15:53:00
12:53 PM,35.1,23.0,61,30.31,10.0,ESE,9.2,18.4,N/A,,Overcast,120,2013-03-18 16:53:00
1:14 PM,35.6,23.0,60,30.30,10.0,ESE,8.1,-,N/A,,Overcast,110,2013-03-18 17:14:00
1:53 PM,35.1,23.0,61,30.28,10.0,East,6.9,20.7,N/A,,Overcast,100,2013-03-18 17:53:00
2:53 PM,34.0,24.1,67,30.25,10.0,ESE,6.9,19.6,N/A,,Overcast,110,2013-03-18 18:53:00
3:53 PM,34.0,24.1,67,30.23,10.0,East,9.2,-,0.00,,Overcast,90,2013-03-18 19:53:00
4:53 PM,32.0,27.0,82,30.19,10.0,Variable,6.9,16.1,0.00,,Overcast,0,2013-03-18 20:53:00
5:45 PM,30.2,28.4,93,30.16,3.0,ENE,8.1,-,0.00,,Overcast,70,2013-03-18 21:45:00
5:51 PM,30.2,28.4,93,30.14,2.5,East,6.9,-,0.00,,Overcast,90,2013-03-18 21:51:00
5:53 PM,30.9,28.0,89,30.14,2.5,East,9.2,-,0.00,Snow,Light Snow,90,2013-03-18 21:53:00
6:10 PM,30.2,28.4,93,30.12,1.8,ENE,5.8,-,0.00,Snow,Light Snow,70,2013-03-18 22:10:00
6:19 PM,32.0,28.4,87,30.13,2.0,Variable,5.8,-,0.00,Snow,Light Snow,0,2013-03-18 22:19:00
6:41 PM,32.0,28.4,87,30.12,1.5,East,5.8,-,0.00,Snow,Light Snow,90,2013-03-18 22:41:00
6:53 PM,32.0,30.0,92,30.13,0.8,East,5.8,-,0.00,Snow,Light Snow,90,2013-03-18 22:53:00
6:55 PM,32.0,30.2,93,30.12,1.0,Variable,4.6,-,0.00,Snow,Light Snow,0,2013-03-18 22:55:00
7:25 PM,32.0,30.2,93,30.11,0.8,East,4.6,-,0.00,Snow,Light Snow,100,2013-03-18 23:25:00
7:38 PM,32.0,30.2,93,30.11,1.0,East,6.9,-,0.00,Snow,Light Snow,90,2013-03-18 23:38:00
7:53 PM,32.0,30.9,96,30.11,1.0,East,10.4,-,0.00,Snow,Light Snow,100,2013-03-18 23:53:00
8:14 PM,32.0,30.2,93,30.09,1.2,ESE,4.6,-,0.00,Snow,Light Snow,110,2013-03-19 00:14:00
8:53 PM,33.1,30.9,92,30.09,1.8,East,4.6,-,0.00,Snow,Light Snow,90,2013-03-19 00:53:00
9:06 PM,33.8,30.2,87,30.07,2.5,Variable,4.6,-,0.00,Rain,Light Rain,0,2013-03-19 01:06:00
9:14 PM,33.8,30.2,87,30.07,4.0,East,8.1,-,0.00,Rain,Light Rain,80,2013-03-19 01:14:00
9:53 PM,33.1,30.9,92,30.06,6.0,ENE,4.6,-,0.00,Rain,Light Rain,70,2013-03-19 01:53:00
10:53 PM,33.1,32.0,96,30.04,5.0,ENE,6.9,-,0.00,Rain,Light Rain,60,2013-03-19 02:53:00
11:53 PM,34.0,32.0,92,29.98,7.0,East,9.2,16.1,0.00,Rain,Light Rain,80,2013-03-19 03:53:00